GFSSW_sfc_rhum_234.txt.gz
RH
82 82 82 83 83 83 81 76 75 74 74 72 70 72 75 79 61 12 15 30 41 68 71 27 21 22 21 28 29 29 28 32 33 30 27 25 24 29 29 34 34 34 33 30 29
81 81 82 82 84 83 81 76 74 72 71 71 70 73 77 75 12 11 36 57 64 70 24 20 19 18 21 23 25 26 31 32 25 20 30 32 31 30 33 34 34 32 26 24 22
81 81 82 82 83 82 79 76 75 74 70 70 71 75 75 43 11 12 52 56 62 48 20 21 18 18 24 24 25 28 23 19 22 20 18 28 35 33 33 45 36 33 27 22 19
81 82 82 83 83 80 77 75 71 69 66 68 73 76 70 12 17 11 47 54 55 23 18 17 17 21 24 23 22 27 24 19 30 31 31 35 34 37 37 36 25 22 19 18 17
81 82 82 83 82 79 76 74 70 64 64 70 72 59 16 12 14 10 42 31 13 13 20 18 16 20 21 22 19 22 19 17 25 31 31 33 36 32 26 20 18 17 17 17 15
81 82 82 84 82 78 75 72 67 63 69 74 64 44 10 16 11 11 13 13 13 12 16 20 18 16 21 23 20 20 15 15 18 23 27 36 35 31 23 18 16 16 15 13 14
80 81 82 84 82 79 74 70 67 69 69 66 49 12 11 15 11 10 12 13 13 13 15 15 19 18 19 22 19 16 18 16 18 15 20 22 30 29 20 18 16 14 14 15 14
80 81 84 84 81 79 77 69 72 69 65 65 51 10 13 13 11 10 12 12 12 11 13 12 11 14 16 14 9 13 11 12 21 17 18 21 33 26 18 18 19 16 14 15 14
81 82 84 82 80 81 71 67 64 65 54 46 12 8 10 20 12 10 13 14 15 11 12 10 11 13 10 10 9 9 9 12 16 18 18 16 31 26 19 19 19 16 14 13 14
83 85 83 82 78 77 62 52 49 39 20 13 11 9 10 13 14 11 12 15 14 12 11 13 12 11 12 10 12 12 10 11 16 21 20 24 30 27 22 20 18 14 13 13 14
83 83 81 79 77 72 35 14 12 12 15 17 18 17 13 12 12 11 14 14 12 12 15 16 14 19 18 18 16 14 14 15 13 24 20 26 30 30 24 20 19 16 14 14 16
82 82 80 76 70 67 21 17 24 19 22 22 16 13 15 13 12 11 13 12 14 16 15 14 21 19 19 19 16 14 15 13 15 22 17 26 33 31 28 20 18 15 15 17 17
83 80 75 67 64 35 26 32 36 25 17 24 20 15 17 13 15 13 17 17 18 17 15 17 20 21 14 18 16 17 15 15 17 18 26 26 35 32 26 18 15 14 15 16 20
80 74 68 70 36 28 27 35 35 30 14 26 19 15 15 19 18 16 16 21 19 22 23 24 19 17 14 18 20 19 14 18 22 23 20 24 23 34 28 19 16 14 16 18 22
78 72 72 58 24 22 32 36 33 22 17 25 22 15 15 18 22 14 16 14 20 23 23 30 24 21 18 26 20 17 19 23 28 25 24 28 28 27 22 22 18 17 18 20 22
74 68 61 28 26 36 37 36 25 18 26 25 21 19 14 20 20 19 16 15 19 16 17 23 22 22 22 24 24 16 12 24 30 26 22 23 20 24 26 23 18 17 20 23 24
69 69 43 30 28 37 38 23 17 22 29 24 26 17 18 23 21 22 21 21 22 21 20 16 21 21 19 14 17 16 14 20 17 16 17 19 17 30 24 18 17 21 22 25 24
67 58 50 33 33 36 23 16 22 36 30 31 26 18 17 24 26 22 20 19 22 25 19 16 19 21 17 21 24 21 16 17 32 16 17 16 19 34 23 12 17 20 24 27 26
65 24 25 27 33 28 18 20 30 33 36 30 23 13 15 22 24 23 25 29 31 26 20 15 20 24 20 18 18 18 15 26 21 19 22 15 20 35 14 15 19 24 28 31 28
22 24 26 29 31 22 20 46 40 39 35 30 20 21 16 23 20 21 25 34 32 32 26 22 18 22 24 19 20 14 15 15 15 50 31 10 11 20 17 21 25 27 30 31 30
22 21 23 29 23 20 30 38 37 34 33 26 22 17 22 26 28 26 34 38 36 30 26 22 17 20 20 26 24 15 17 17 21 24 27 23 14 16 14 22 27 28 30 31 31
26 21 25 26 22 32 33 35 47 32 27 26 24 23 23 31 32 30 30 34 41 34 25 31 21 20 25 22 19 19 23 22 40 36 32 42 29 10 14 21 26 32 32 30 30
26 26 25 27 45 45 38 34 33 28 29 24 24 27 28 32 34 39 39 42 43 42 28 30 19 19 30 31 27 27 28 30 38 43 48 50 20 10 17 23 28 33 32 28 29
31 47 27 30 34 27 27 28 28 30 28 27 25 22 23 26 37 47 40 42 38 44 47 38 24 17 22 24 35 34 39 34 31 42 44 32 22 21 25 33 32 35 32 31 28
42 59 47 64 33 25 28 28 27 26 25 23 27 25 22 60 27 36 42 38 33 36 30 24 26 26 32 31 29 29 32 36 54 30 53 29 35 26 34 36 34 34 35 29 33
58 66 51 71 44 42 55 29 29 39 32 22 23 30 25 25 29 28 32 28 26 26 30 26 32 24 34 31 27 30 34 33 33 29 30 29 24 27 32 30 36 40 33 30 37
46 41 34 67 41 39 33 25 30 30 35 34 25 23 26 33 31 32 30 30 31 25 27 28 26 26 20 28 30 28 25 29 28 25 34 32 40 38 37 42 45 41 26 34 40

GFSSW_sfc_rhum_237.txt.gz
RH
82 81 81 80 81 80 76 70 64 61 61 67 71 75 77 80 73 13 16 31 41 68 66 25 18 18 17 23 23 24 24 29 29 27 26 23 24 27 24 29 29 27 27 25 22
82 82 81 81 81 79 74 68 61 58 66 70 73 75 76 74 10 11 42 57 64 66 21 17 16 16 19 21 22 22 27 29 21 19 31 30 30 28 30 30 29 26 20 18 16
81 81 81 81 80 77 74 68 61 67 67 69 71 75 74 43 13 10 48 54 58 46 17 16 14 15 21 21 21 20 23 21 25 21 19 28 30 28 31 35 27 24 20 17 16
80 82 81 81 80 76 72 68 63 64 65 69 74 74 74 14 16 10 47 54 56 18 15 14 14 18 20 21 17 22 21 22 29 27 26 30 24 24 25 26 19 19 16 14 14
81 81 81 82 79 76 71 68 65 64 67 72 72 56 20 10 12 9 46 30 7 10 15 16 13 15 18 16 17 19 20 22 22 27 25 23 26 24 23 19 16 15 15 15 14
81 82 83 83 81 78 73 68 64 62 68 72 65 62 9 14 10 8 8 8 9 11 15 15 15 14 18 18 19 16 16 17 19 22 25 25 24 22 20 16 16 16 16 14 14
81 81 83 83 82 79 75 71 67 71 68 61 52 10 10 14 9 8 9 9 9 10 14 11 13 16 16 20 14 14 17 17 15 14 20 17 27 25 18 16 16 15 13 14 13
80 80 84 82 81 77 70 66 67 63 55 62 60 8 12 10 8 8 10 10 8 7 9 9 9 11 14 14 14 15 12 13 17 14 15 16 30 23 17 17 17 14 12 13 11
80 81 84 82 80 77 67 62 60 58 49 43 11 6 9 18 10 8 10 13 11 8 8 7 8 10 9 10 10 9 10 11 18 16 14 16 29 22 18 17 16 14 13 12 12
83 83 81 80 77 74 69 53 55 41 20 9 7 8 9 10 9 8 9 11 11 10 9 8 8 10 10 10 13 14 13 12 14 15 15 22 27 23 19 18 18 14 13 12 11
82 81 80 76 78 73 36 15 12 10 11 13 12 10 10 9 8 9 10 10 8 8 10 11 12 16 14 14 13 12 13 13 12 20 18 22 26 25 21 18 17 14 12 11 10
82 79 76 73 71 68 25 14 22 13 18 13 9 10 12 10 9 9 10 10 10 11 11 12 18 16 13 14 13 13 12 13 13 13 14 22 28 27 24 18 15 13 11 11 14
81 76 70 63 68 34 18 22 23 19 13 19 13 11 13 12 13 11 13 12 14 15 14 17 16 12 12 15 15 15 14 16 17 16 16 21 29 30 22 15 13 10 10 12 16
74 73 65 61 34 18 20 24 24 23 14 18 14 12 10 15 15 11 11 17 14 18 19 20 15 14 14 17 16 16 14 17 19 20 20 19 22 30 21 17 12 10 12 14 18
72 64 67 61 19 16 26 26 24 22 19 18 16 11 10 14 16 13 10 11 15 15 19 28 21 18 18 22 17 16 15 15 18 23 20 23 15 21 17 17 11 12 14 17 18
72 66 56 25 18 28 26 27 23 22 26 20 13 13 12 14 13 12 11 11 14 14 16 18 17 16 15 14 17 13 11 19 25 23 22 17 14 23 22 13 12 13 16 19 18
72 65 38 23 21 28 27 21 19 20 22 19 20 13 13 18 16 16 14 15 18 20 18 16 17 16 14 14 15 13 14 21 18 18 14 12 14 28 18 10 13 18 18 19 19
65 55 46 25 24 27 20 17 20 26 21 24 20 13 15 19 19 15 14 16 16 17 17 16 20 18 14 16 20 16 13 18 33 20 19 14 15 30 14 8 12 16 19 21 23
58 18 20 21 23 22 18 16 27 23 26 21 17 13 15 17 18 17 19 22 21 18 21 15 23 19 18 16 12 12 14 17 23 15 20 11 18 20 10 10 14 17 22 26 26
19 18 21 20 20 21 16 37 30 30 26 23 18 16 17 20 17 17 21 24 25 21 17 14 20 17 18 16 14 13 10 16 16 47 29 10 13 19 14 16 16 20 24 27 27
19 18 19 19 18 15 20 30 30 28 27 22 16 15 19 22 19 18 23 29 26 23 19 15 14 19 17 23 19 14 13 13 18 19 30 24 16 10 12 16 18 21 23 28 28
18 20 19 19 18 19 23 26 42 24 21 20 18 18 20 22 24 23 24 28 32 27 19 20 19 18 20 19 16 17 18 16 45 35 30 40 28 9 12 14 20 22 25 26 27
18 20 18 19 36 35 28 29 26 21 22 18 20 22 20 23 31 29 30 35 36 34 27 24 17 25 29 29 22 22 23 21 27 37 47 47 25 11 14 17 21 23 27 27 20
22 35 20 19 23 20 22 21 25 24 22 18 18 17 18 21 26 36 32 37 34 36 37 34 18 19 28 23 29 30 32 30 25 41 41 29 23 20 20 26 23 26 28 21 25
32 50 40 49 26 18 20 20 21 22 19 18 20 17 19 56 21 30 30 32 28 31 21 22 24 17 22 23 23 23 24 27 48 26 44 26 28 18 26 27 24 28 27 23 31
45 55 42 60 31 36 48 24 20 27 22 17 20 19 17 22 23 26 24 20 23 19 21 19 27 18 23 22 20 23 24 25 19 20 21 23 19 23 25 22 28 31 22 30 33
31 30 29 59 29 32 28 19 21 22 26 18 17 19 25 26 21 19 19 20 22 20 21 24 23 26 23 18 21 26 19 20 20 20 26 26 29 28 30 29 34 27 27 32 35

GFSSW_sfc_rhum_240.txt.gz
RH
82 82 81 81 81 80 77 73 71 69 69 70 74 76 77 81 67 14 18 29 44 65 68 34 24 22 24 38 36 41 52 45 34 38 41 32 34 29 26 29 25 22 23 21 20
82 82 81 80 80 81 76 72 70 70 71 73 74 75 77 78 20 13 42 58 63 66 27 19 19 22 29 34 33 35 49 35 26 33 36 34 32 31 30 28 27 23 19 17 17
81 81 81 80 82 79 75 70 70 69 68 71 75 77 78 47 19 12 48 53 62 52 17 17 17 19 32 29 24 29 39 32 30 30 29 28 27 26 30 33 26 25 20 18 18
81 81 83 83 81 78 73 70 67 66 68 71 75 80 81 18 19 11 49 60 52 29 14 16 18 30 30 28 21 31 28 29 32 31 28 28 24 27 27 29 20 21 19 18 18
82 84 85 83 80 76 71 66 66 66 68 74 78 79 19 13 14 9 44 28 9 12 16 18 17 24 26 22 23 29 26 26 26 26 26 24 27 25 24 20 17 17 17 18 17
83 85 85 83 81 78 73 69 67 67 73 76 72 71 15 18 10 9 10 9 10 13 15 17 20 18 20 23 24 20 22 23 25 26 22 25 25 23 22 19 17 15 16 16 16
81 84 84 82 79 77 72 70 67 71 70 66 69 13 12 14 9 9 10 11 9 11 16 12 15 24 22 23 17 17 21 21 19 21 24 22 28 26 20 18 17 15 16 16 15
80 80 83 81 80 75 70 62 62 60 62 63 68 14 14 10 9 8 10 11 10 9 13 14 14 16 21 20 17 20 22 33 21 20 20 22 40 24 19 19 20 17 16 15 14
81 82 82 80 78 78 72 70 67 68 67 55 14 10 11 20 9 8 10 12 11 12 15 7 14 16 19 19 20 16 20 20 26 18 20 24 34 25 20 19 20 18 15 12 12
84 83 80 77 78 75 72 72 59 39 31 10 7 12 10 11 10 8 10 12 13 13 15 15 16 17 16 17 26 21 20 17 20 23 20 30 31 26 22 19 20 17 13 12 14
84 82 79 75 78 74 39 20 17 15 12 13 12 11 11 11 8 9 11 11 12 16 20 16 20 22 20 19 16 16 18 17 17 20 24 30 31 29 29 20 20 15 12 14 16
83 81 78 70 71 72 37 17 25 18 19 14 10 11 11 11 10 10 12 14 15 19 18 20 23 18 14 17 18 18 18 20 20 18 20 29 32 31 29 22 17 12 15 16 19
81 76 71 62 71 38 21 25 24 21 20 18 12 11 12 11 13 12 12 16 18 19 19 22 19 13 14 19 20 20 21 21 21 20 22 27 39 35 25 20 11 12 15 18 20
78 71 64 58 35 21 24 23 26 28 24 18 14 11 10 16 17 10 10 18 16 21 23 23 16 16 20 20 19 26 19 18 19 26 37 30 46 39 23 15 12 14 18 20 21
75 68 62 60 21 22 27 28 27 32 33 18 14 10 11 14 16 14 11 14 19 18 25 29 21 20 19 17 18 21 18 16 20 24 33 31 28 48 17 14 14 16 18 20 22
74 71 62 27 22 31 27 30 31 32 35 21 13 13 13 15 13 16 13 15 19 17 18 23 16 17 17 15 18 18 14 27 33 36 39 20 21 41 24 16 16 17 18 21 23
71 73 38 22 28 31 30 30 32 30 20 20 20 13 15 19 16 16 16 18 22 28 28 20 20 18 15 18 22 17 19 45 38 40 28 16 30 40 16 15 18 19 21 23 25
76 74 46 24 26 30 28 27 35 22 22 21 18 15 18 19 19 18 20 22 19 19 27 25 28 21 16 20 20 19 22 39 51 40 35 20 42 45 13 14 16 18 22 24 28
78 24 24 24 25 28 28 31 41 30 23 20 18 18 20 19 21 20 24 26 24 21 30 22 29 20 17 16 14 18 24 25 35 28 42 31 35 23 14 16 18 22 24 28 31
31 24 27 20 23 30 30 42 33 28 23 22 22 20 24 24 23 22 27 27 27 22 21 19 29 20 19 20 16 16 14 27 34 67 52 23 29 26 23 22 22 25 26 31 30
36 29 23 20 20 26 34 33 31 25 24 22 21 21 23 26 23 23 26 32 30 27 24 21 22 29 25 24 22 21 22 20 26 30 56 57 34 18 20 21 26 26 26 32 30
34 34 24 20 29 27 33 28 40 23 22 20 23 24 25 28 29 29 31 34 36 34 24 26 33 28 26 21 20 20 24 26 86 70 63 72 56 17 17 24 26 26 29 31 28
33 32 24 23 57 48 30 29 24 22 22 21 22 25 22 29 44 34 36 38 39 37 36 37 29 42 40 40 29 29 28 24 36 53 79 82 54 17 21 27 27 28 32 28 30
38 51 30 26 30 26 26 24 27 26 22 17 19 21 24 28 32 41 37 40 42 35 41 39 30 30 56 39 42 44 45 40 41 80 71 48 34 25 32 34 29 32 33 30 32
49 64 49 60 34 24 27 26 24 24 20 22 26 22 29 48 29 36 35 35 32 30 31 34 40 23 26 26 28 30 29 34 78 42 63 38 36 32 34 33 31 36 30 32 33
60 72 61 82 44 49 60 31 26 27 27 21 26 20 23 30 30 34 30 30 30 26 30 28 43 26 28 25 24 26 27 29 28 23 26 32 33 32 30 30 38 36 33 34 35
42 43 52 71 40 52 44 24 26 26 25 19 20 27 29 25 20 21 22 24 28 31 30 35 38 48 45 23 27 38 28 26 28 26 32 46 45 34 37 40 42 35 37 35 37

GFSSW_sfc_rhum_246.txt.gz
RH
84 83 82 82 81 81 76 72 71 70 73 75 78 80 78 81 63 16 16 30 47 60 74 58 36 37 37 40 38 45 55 59 56 52 46 35 32 26 23 23 22 23 26 25 21
84 83 82 81 82 79 74 71 69 70 73 77 78 78 78 78 30 17 31 62 62 69 42 32 28 26 31 30 37 47 61 56 44 40 38 33 33 31 27 27 27 24 22 20 18
83 81 84 83 80 76 73 71 69 70 73 74 81 83 83 61 18 17 44 56 58 56 35 34 30 30 34 33 36 43 56 42 36 30 26 28 29 30 30 34 32 27 25 20 20
82 83 85 83 79 75 71 68 68 71 72 76 81 82 80 22 25 15 49 54 56 22 26 25 27 31 38 38 36 42 36 37 39 36 31 32 29 30 29 30 25 23 24 20 20
83 86 85 83 79 75 70 69 71 73 78 80 80 82 26 19 21 13 47 33 14 16 18 26 24 30 35 35 32 37 36 30 28 28 30 26 31 29 28 22 19 18 18 21 20
84 86 84 84 81 78 72 74 77 78 78 75 77 70 15 20 14 14 14 14 16 15 17 18 25 25 30 31 35 38 32 29 28 28 27 28 30 28 25 20 18 18 19 18 18
82 84 84 84 82 79 74 74 74 74 74 76 71 14 15 15 14 12 14 16 17 14 15 15 22 22 25 31 32 32 41 33 31 29 28 24 32 30 27 19 19 19 18 17 18
80 81 84 83 83 82 77 74 72 72 71 77 75 14 19 14 16 12 13 14 15 14 14 16 16 17 25 26 30 30 38 44 34 31 28 30 45 30 24 20 22 18 20 20 21
82 83 84 82 84 84 77 76 72 70 75 64 16 13 16 20 14 14 14 16 17 15 15 11 18 23 22 30 34 27 31 38 33 31 33 34 42 30 23 20 19 20 22 22 24
83 82 84 84 85 83 71 70 53 38 21 11 12 16 13 16 17 13 14 17 17 19 16 19 25 26 29 26 28 30 30 29 28 32 32 36 36 29 22 19 20 22 25 26 25
82 81 82 83 83 81 46 26 20 18 18 17 21 18 16 15 14 13 14 18 18 21 22 24 25 32 29 29 24 28 28 25 26 29 37 38 38 31 21 19 22 23 23 26 27
81 80 80 84 80 74 40 34 29 20 23 18 17 18 16 16 16 13 15 18 21 25 28 27 28 22 25 23 26 25 24 26 25 31 37 42 42 38 21 18 21 22 26 28 26
81 80 77 79 78 41 37 36 37 29 28 24 17 17 18 15 18 16 17 23 24 22 23 25 21 21 22 24 25 28 25 30 25 36 38 43 53 25 20 18 19 21 25 26 28
80 78 79 76 41 36 38 38 39 34 31 26 20 16 15 22 22 17 16 23 22 31 30 27 21 22 25 22 24 30 27 24 30 35 49 42 59 36 24 22 22 27 28 28 29
79 80 77 68 38 38 37 41 43 31 34 25 19 16 18 19 22 17 17 19 26 28 29 32 23 25 24 22 24 22 23 29 33 34 44 39 46 30 26 27 27 27 28 28 30
78 82 78 41 43 44 46 47 36 38 34 30 22 20 22 22 20 22 21 19 24 23 24 25 22 22 24 22 22 19 24 31 49 49 40 36 32 47 31 28 30 29 30 29 34
84 81 55 37 37 45 46 37 38 36 29 29 28 24 26 26 23 24 28 28 31 35 35 30 27 24 23 20 20 22 31 36 25 38 28 38 37 33 25 28 32 34 33 33 36
79 76 51 34 42 41 40 34 42 35 37 32 28 26 26 29 27 28 32 38 34 32 33 34 36 26 21 21 23 24 29 34 28 33 37 37 48 32 26 30 31 32 32 36 33
71 46 43 35 35 45 39 50 42 43 36 29 26 28 33 29 28 33 40 41 39 33 30 31 34 25 22 22 20 18 24 26 37 51 52 47 29 29 30 32 33 35 36 42 34
46 46 41 32 39 43 45 58 48 41 35 35 30 34 37 32 31 36 44 42 42 41 40 31 32 26 25 22 22 18 21 22 43 49 39 38 41 42 42 40 38 39 42 42 35
50 44 37 34 39 44 48 57 42 33 33 31 31 33 36 35 34 40 44 48 49 47 39 32 30 33 28 29 32 28 27 34 41 46 54 65 48 47 44 40 42 41 45 39 38
53 42 36 39 43 63 52 42 40 33 29 32 33 34 37 42 42 42 39 48 46 53 39 44 37 41 37 30 25 28 32 48 68 42 74 90 72 38 42 38 40 43 46 38 37
53 45 38 38 53 60 48 36 35 32 32 31 34 34 35 44 45 48 48 49 46 38 30 43 36 55 48 44 37 38 36 35 60 74 78 79 42 30 39 40 42 50 48 39 36
58 48 43 52 53 45 39 38 35 34 29 26 26 29 36 43 46 51 49 52 48 39 37 39 34 41 58 44 44 49 47 44 47 84 79 61 44 36 47 49 51 53 47 41 38
78 70 63 58 48 41 40 38 33 31 29 29 30 33 34 55 47 48 48 46 40 30 34 41 36 32 35 32 34 32 32 44 71 43 66 34 48 45 51 53 58 52 44 42 40
59 73 76 87 51 46 71 34 35 39 30 31 31 38 36 39 42 46 43 46 41 31 34 41 47 33 40 32 30 30 29 36 37 36 34 36 44 47 50 62 56 57 47 46 42
68 72 58 81 66 54 48 34 34 30 37 37 34 33 31 33 33 36 38 38 34 32 33 38 50 58 60 37 34 42 33 32 32 35 36 48 47 54 63 63 62 61 49 46 43

GFSSW_sfc_rhum_249.txt.gz
RH
85 83 80 80 80 78 74 72 71 70 73 76 77 76 76 83 62 16 16 25 50 63 76 64 36 34 38 38 40 44 55 62 61 56 49 31 30 28 25 25 25 25 27 26 21
84 83 81 80 80 77 72 70 69 71 74 77 76 78 77 75 29 18 30 55 63 70 43 28 27 28 33 34 42 52 64 58 46 42 42 36 35 30 29 28 27 24 23 19 19
82 82 82 81 78 75 70 69 71 73 78 77 82 83 82 67 17 17 46 53 60 54 43 33 31 28 35 38 40 48 54 42 33 30 29 32 33 30 31 34 32 27 22 20 21
82 83 84 82 78 74 70 70 72 75 74 79 82 82 82 23 24 16 54 54 56 26 31 25 26 32 41 40 38 46 38 37 37 35 31 33 30 33 31 32 24 22 24 21 21
84 84 84 83 80 78 75 74 74 76 79 80 80 84 27 18 20 14 46 32 16 15 19 24 26 32 37 36 36 41 36 32 33 31 32 27 32 27 27 23 20 16 18 20 21
83 85 84 84 82 82 78 76 76 77 77 75 79 63 14 16 12 13 14 15 17 15 16 20 26 29 34 40 42 37 30 29 27 28 29 30 32 25 26 22 17 17 19 20 21
81 84 83 84 83 81 82 78 75 74 74 76 77 13 14 14 15 13 14 18 18 15 18 18 26 23 32 39 34 33 39 34 33 30 29 26 34 32 26 18 19 19 21 21 22
80 81 82 82 83 82 83 79 79 76 77 77 71 14 18 15 16 14 14 16 16 15 18 18 18 20 32 33 36 40 41 47 36 32 29 31 46 31 22 18 20 20 23 24 25
82 82 81 82 83 82 80 78 77 71 63 61 16 12 15 20 14 16 15 17 19 17 16 12 19 25 23 34 35 30 35 42 40 36 33 35 42 28 20 18 21 23 26 26 28
85 83 82 81 81 83 78 73 53 37 21 10 12 13 13 16 18 15 15 19 19 19 17 20 28 30 30 27 28 29 33 36 35 36 36 36 37 27 20 20 24 27 28 28 27
85 83 81 79 82 79 46 25 15 16 19 18 21 19 17 16 16 14 16 18 20 21 23 25 26 34 34 30 26 30 27 25 30 32 38 39 37 21 21 22 23 24 27 29 28
82 83 78 79 77 76 38 30 26 17 22 20 18 19 18 18 16 14 17 17 20 25 28 25 24 22 28 24 29 28 26 27 38 35 37 43 42 40 19 20 22 26 29 29 30
80 82 78 79 77 44 39 41 42 28 27 25 18 18 19 16 20 17 19 23 21 19 20 22 20 22 24 26 25 29 27 30 22 42 41 45 56 25 22 22 24 25 30 30 32
81 82 81 74 40 39 37 44 42 30 26 24 20 18 17 23 23 18 17 24 25 30 30 29 24 23 25 24 27 28 28 28 30 43 51 48 59 38 27 26 27 30 32 33 34
76 82 84 52 37 38 38 45 46 29 24 25 20 17 20 20 24 20 19 19 27 28 30 30 23 26 22 21 27 24 27 32 38 38 48 51 49 49 30 33 31 32 34 34 38
80 83 79 40 44 51 50 49 36 33 29 32 24 23 23 24 23 24 24 21 25 25 24 27 24 23 24 23 24 22 30 37 48 49 49 42 36 47 36 34 35 34 36 36 38
82 81 57 39 34 48 47 37 34 30 29 26 28 25 28 28 24 26 30 33 33 41 33 29 28 25 24 20 21 24 28 31 22 30 26 35 36 41 30 33 38 39 39 42 34
82 74 52 37 44 44 39 34 56 35 36 34 28 28 29 30 31 30 34 38 36 34 34 38 36 28 23 24 25 26 28 31 23 27 33 38 41 32 32 32 36 38 40 44 37
71 48 44 38 39 46 39 48 41 38 32 27 27 31 37 33 30 36 41 42 43 38 31 35 35 28 23 21 22 17 24 28 35 52 53 43 32 32 34 35 37 41 43 48 40
48 47 42 37 45 42 44 58 54 44 37 36 30 35 37 36 34 38 46 46 43 46 46 30 35 32 27 24 23 15 23 20 42 42 32 31 47 40 43 45 44 47 51 48 41
51 43 38 40 39 44 42 58 45 36 34 30 31 36 38 36 36 41 48 50 51 49 37 34 33 35 30 31 33 26 24 38 45 45 52 59 36 40 50 47 50 51 53 46 43
54 40 39 42 43 64 52 45 43 33 30 34 34 36 39 43 41 42 39 46 50 55 38 46 37 42 38 33 26 30 37 39 65 42 77 88 63 36 48 48 49 54 51 44 42
51 45 41 39 54 60 50 38 37 33 32 32 34 37 40 45 44 47 45 50 48 34 32 42 40 54 48 49 40 40 36 47 62 73 81 76 34 33 45 47 52 60 52 46 42
53 49 44 57 56 46 40 38 36 34 30 28 28 34 40 46 48 51 46 52 47 38 40 37 37 44 57 44 43 48 45 43 46 80 76 63 44 35 45 56 59 60 54 47 45
77 65 66 59 49 43 42 39 33 30 30 30 33 35 39 54 48 50 49 45 40 33 34 40 35 35 37 34 34 32 33 46 70 42 62 30 46 43 52 62 66 64 50 48 47
66 77 79 89 53 45 71 35 32 38 32 32 33 38 38 44 43 47 43 46 40 32 36 41 47 35 39 34 32 29 29 37 44 44 49 40 42 48 56 70 65 67 54 53 49
78 75 59 83 64 54 47 36 33 32 39 39 34 34 34 36 37 44 43 41 34 30 34 40 51 57 58 41 37 44 36 32 33 34 34 46 44 57 69 66 68 72 56 55 50

GFSSW_sfc_rhum_255.txt.gz
RH
86 84 82 80 79 78 73 71 70 72 75 78 80 80 78 79 61 12 14 22 42 66 74 62 30 31 31 40 44 40 53 57 58 52 40 25 24 21 20 18 18 19 17 16 17
85 83 83 81 80 77 74 71 72 75 78 81 80 77 75 78 17 15 35 57 63 68 42 28 30 28 38 39 43 48 56 50 38 37 35 30 26 24 20 20 18 16 15 16 17
83 82 82 84 80 77 74 73 75 76 80 81 76 84 82 59 16 15 50 55 62 51 39 28 26 29 40 41 39 42 47 36 35 31 27 28 27 24 22 24 20 20 19 19 20
83 82 84 85 82 79 77 77 78 78 78 79 80 88 82 19 23 13 53 55 53 33 25 25 26 35 44 41 36 41 38 34 32 28 26 27 24 22 22 23 17 19 20 20 21
83 84 84 84 83 79 77 77 75 75 79 80 80 77 23 14 15 11 45 32 16 17 23 26 26 35 40 37 35 37 34 29 28 26 25 22 25 21 20 17 17 18 21 22 22
83 85 84 83 83 82 79 79 76 78 82 80 79 62 12 18 12 15 16 15 17 19 23 28 29 30 33 34 34 30 27 25 23 23 22 25 26 19 18 17 19 21 22 22 24
82 83 83 82 83 82 80 82 78 83 83 81 75 12 14 17 15 14 16 18 17 20 25 24 27 27 30 32 28 27 30 28 26 25 25 22 24 22 18 18 20 21 22 24 24
80 80 84 82 83 82 81 81 84 83 77 72 49 12 19 16 17 15 16 16 16 16 21 23 26 33 30 28 34 34 33 38 30 26 26 28 29 21 18 19 22 22 23 26 25
81 80 83 81 81 81 79 81 73 60 59 58 15 13 19 23 14 17 17 19 19 16 19 15 22 30 22 30 30 28 29 37 37 30 29 29 28 20 17 20 23 23 24 26 26
84 82 83 82 80 80 80 76 57 40 23 11 13 15 15 16 18 16 16 19 18 21 18 21 26 27 27 22 27 25 23 32 37 33 30 28 23 19 18 20 24 24 25 27 28
85 81 82 81 80 82 42 25 14 17 20 20 24 21 18 16 17 15 17 16 19 21 22 23 22 26 24 27 24 25 23 25 33 32 32 25 22 20 18 19 22 24 26 27 30
86 80 82 82 85 77 37 24 23 20 23 22 19 20 20 18 17 14 16 16 21 23 25 25 26 22 25 25 28 23 21 32 37 33 27 22 23 20 19 20 23 25 27 30 32
84 81 82 82 81 46 43 44 47 31 24 26 21 20 21 16 20 18 21 22 22 22 23 24 21 24 23 25 20 24 24 24 21 39 34 26 34 22 20 21 22 23 28 30 34
84 83 80 78 41 41 42 46 48 30 22 22 22 20 19 23 25 21 20 26 28 26 26 24 22 22 23 22 23 21 24 22 33 36 33 40 39 26 25 23 22 26 28 31 36
84 83 81 67 36 30 39 49 48 27 29 25 23 19 23 23 26 22 23 20 27 27 29 29 25 24 21 21 26 18 23 29 40 39 42 44 44 32 28 26 26 29 31 32 36
85 83 82 42 43 50 53 48 34 31 38 30 26 27 24 26 25 28 24 24 25 26 26 28 26 25 25 23 24 21 30 35 41 38 36 37 39 29 30 29 32 31 32 33 38
85 83 59 41 32 53 46 36 35 44 32 28 29 28 29 30 28 29 32 34 31 36 32 33 27 26 24 18 20 22 22 22 19 20 21 28 30 26 29 30 34 38 37 36 38
85 69 56 43 50 48 35 30 50 34 32 32 29 31 30 34 35 32 33 34 36 30 35 34 30 27 21 19 16 19 19 20 24 17 21 32 30 24 28 31 34 38 40 37 40
75 50 45 43 46 44 30 37 37 39 32 27 28 33 39 35 32 36 38 38 41 39 33 32 33 28 22 20 19 13 20 24 25 37 32 23 23 25 29 28 36 41 42 41 43
54 48 44 45 49 44 34 44 49 44 37 32 32 36 37 38 35 38 44 43 39 45 44 28 33 31 28 23 22 16 21 15 26 45 26 13 20 19 28 32 40 43 46 43 45
53 44 40 50 43 45 41 45 50 40 35 30 34 37 37 36 37 40 42 46 46 44 36 31 33 35 32 28 24 18 17 36 32 29 27 24 11 25 32 36 46 48 48 45 47
56 48 43 46 45 65 52 48 47 35 33 36 36 37 37 38 40 42 38 42 46 48 35 40 35 36 30 29 24 25 26 20 54 48 56 55 31 26 33 37 46 50 48 43 47
52 50 47 42 52 58 52 40 38 33 31 33 37 42 43 43 40 44 40 50 49 36 40 38 36 39 36 35 37 31 32 40 48 52 65 52 23 32 31 38 46 51 45 46 49
54 52 50 56 59 47 42 40 36 35 32 31 38 42 45 48 47 49 43 52 42 39 45 34 37 39 43 40 41 41 37 40 34 51 62 42 23 25 27 39 48 52 48 47 52
75 64 68 64 52 48 44 40 34 32 32 32 39 40 41 56 48 44 48 44 40 45 40 36 35 32 36 31 31 26 36 42 58 32 49 23 40 27 32 43 53 57 49 48 57
70 76 80 88 53 45 71 39 34 34 33 31 35 39 41 43 38 46 40 36 30 36 39 41 41 34 34 29 29 30 28 39 37 37 34 35 35 33 39 55 56 56 47 51 59
89 75 58 82 54 49 46 38 34 33 42 40 38 37 38 41 44 46 42 39 34 31 36 40 44 45 40 42 30 34 35 32 35 40 34 29 24 42 41 45 53 53 49 52 58